Theta_e
302 295 294 293 298 309 319 319 316 317 317 316 314 312 310 310 313 321 322 326 329 323 320 320 322 317 318 320 321 324 325 323 323 323 323 324 324 323 323 323 322 324 326 330 334 337 339 341 343 344 344 345 346 347 347 346 345 346 347 347 346 345 347 347 345 345 344 343 343 343 344 344 346 346 347 350 351 352 353 356 356 357 357 358 360 360
303 295 295 296 298 304 316 321 318 311 317 314 312 311 310 311 312 319 320 325 327 321 318 320 319 317 317 319 321 326 325 320 321 322 322 323 323 322 322 322 322 324 328 331 333 336 338 340 342 343 343 346 343 345 345 345 345 346 346 346 346 346 347 346 346 346 345 344 344 343 344 344 345 347 348 347 349 351 354 357 358 359 359 360 359 362
297 295 298 299 300 300 303 304 307 310 311 315 311 310 309 311 319 321 322 325 324 320 315 319 316 317 319 320 322 325 327 327 322 322 323 322 322 321 321 321 321 323 325 330 333 335 338 340 342 342 343 344 345 345 345 345 345 346 346 346 347 346 346 346 347 346 345 346 348 346 345 345 344 346 350 348 352 355 353 355 357 360 360 361 361 363
293 293 296 300 299 299 299 300 299 300 309 312 311 308 307 312 312 308 318 320 320 320 316 318 315 316 322 323 323 325 328 329 329 325 322 324 322 321 321 322 321 322 325 328 331 334 337 339 341 341 342 343 344 345 344 344 344 345 347 346 346 346 347 347 349 350 347 348 348 349 347 347 347 345 351 350 353 353 353 353 356 359 359 360 361 362
292 297 301 299 299 299 298 298 297 307 307 313 313 310 309 313 314 312 315 318 321 322 321 318 314 314 316 315 317 322 327 328 327 328 323 322 324 324 323 322 323 323 326 329 331 334 337 338 339 340 342 343 342 343 344 344 344 346 346 346 347 347 348 347 352 350 348 351 348 350 350 350 349 348 347 347 348 351 353 354 354 356 359 360 361 361
293 298 300 299 298 299 298 296 296 300 300 309 315 314 314 317 315 317 318 316 314 312 317 315 304 305 313 315 316 319 321 322 325 322 321 321 321 322 321 321 323 325 328 330 331 334 336 338 339 340 341 341 342 343 344 345 345 346 346 347 348 348 348 347 349 349 349 350 346 345 344 342 342 341 342 342 344 347 349 352 354 357 359 360 361 360
296 299 299 298 298 297 297 296 296 301 299 304 305 318 318 318 317 317 316 314 306 306 314 319 306 302 313 313 315 318 319 320 323 321 320 320 320 320 321 321 322 326 327 331 333 334 335 337 338 339 340 341 341 343 345 345 346 347 347 348 348 348 348 348 350 350 351 347 346 345 344 343 342 341 342 345 347 348 351 354 354 356 358 359 360 361
298 297 298 298 297 295 294 294 297 302 304 301 313 318 319 317 315 316 315 312 312 317 317 318 314 304 304 311 317 319 318 319 321 322 319 319 319 320 321 322 322 327 329 330 331 333 336 337 337 337 340 341 342 344 344 344 346 346 347 348 348 349 350 348 351 350 351 347 346 345 344 345 343 343 343 345 347 351 355 353 354 356 357 358 359 359
295 296 295 295 295 293 293 296 297 305 304 305 319 321 317 317 318 318 315 312 313 312 306 312 317 305 304 312 319 319 314 316 318 320 320 318 319 320 321 322 322 327 329 331 331 333 335 336 337 339 339 341 343 343 343 344 345 346 348 348 348 348 349 348 352 351 350 350 347 346 345 346 346 345 345 350 353 352 356 352 354 355 356 357 358 358
298 299 295 297 294 292 295 297 298 307 311 318 318 317 316 316 316 315 314 311 309 305 303 309 313 304 302 311 313 317 314 314 317 320 322 319 318 319 321 322 322 327 330 332 333 334 335 336 337 339 341 341 343 344 345 345 346 346 347 348 348 348 349 349 352 352 350 351 350 346 345 345 345 349 348 350 350 350 354 352 353 354 354 355 356 357
300 309 308 296 294 297 297 297 299 305 319 320 318 312 309 310 310 312 309 308 306 300 303 312 312 308 299 308 311 311 312 317 319 321 323 321 319 320 321 322 322 326 329 331 332 334 335 337 338 339 339 341 343 344 344 345 346 346 347 347 347 348 349 351 352 351 349 350 348 347 346 346 345 346 346 347 348 349 351 351 352 353 354 354 355 356
295 297 300 301 305 318 310 317 319 320 321 318 312 308 308 305 308 304 302 305 300 298 304 313 311 311 299 303 313 317 321 320 321 320 322 322 319 320 321 322 323 326 329 331 332 333 335 336 337 339 339 340 342 343 344 345 346 346 347 347 347 348 349 350 352 352 350 350 349 348 347 347 347 347 346 346 347 348 350 350 351 352 352 352 354 355
292 293 294 296 307 319 318 316 316 320 318 316 312 308 300 293 297 296 299 295 295 295 305 311 313 307 304 309 316 318 319 321 323 324 324 324 322 321 321 322 323 326 329 331 332 333 334 335 336 337 338 340 341 342 344 345 346 346 347 347 346 347 349 350 352 352 350 350 350 348 347 348 348 348 348 347 347 349 349 350 350 350 351 351 351 354
290 293 295 303 313 321 318 311 310 310 313 312 308 303 298 292 291 288 293 297 295 301 312 310 315 307 312 314 319 319 321 323 325 325 326 326 325 323 322 322 323 325 329 330 332 333 334 335 336 337 338 339 341 342 344 346 346 346 346 347 347 347 349 351 352 352 351 350 351 350 349 348 351 349 348 348 347 349 350 351 350 351 351 351 352 353
284 286 294 310 305 317 314 315 316 314 313 313 313 308 303 298 293 288 291 291 294 299 306 314 306 301 304 308 324 321 323 324 326 327 328 328 327 326 324 323 324 325 328 330 332 334 335 336 337 337 339 340 341 342 344 346 346 347 346 347 347 347 349 351 351 352 351 351 352 351 350 349 350 349 350 349 349 349 350 351 351 351 352 352 352 354
291 288 294 305 314 319 311 316 320 316 312 312 309 308 304 300 300 294 295 295 297 301 303 305 303 308 309 321 327 330 325 324 327 327 329 328 329 328 325 323 323 325 327 330 332 334 335 336 337 338 339 340 341 342 344 346 347 347 347 347 348 348 350 351 353 352 351 352 353 353 352 350 353 354 352 352 354 352 352 351 351 351 352 353 354 355
291 289 294 298 302 318 316 320 319 319 303 309 307 303 304 308 308 302 302 304 303 299 297 306 305 307 315 319 326 326 324 323 324 326 327 328 328 327 326 324 324 325 327 329 331 333 335 337 338 339 340 341 342 342 344 346 347 347 348 348 348 348 351 351 353 352 352 352 353 353 353 352 352 353 352 351 352 352 353 353 352 352 353 354 354 355
292 292 296 296 300 313 319 320 320 318 314 309 302 306 310 313 310 300 292 291 293 291 293 303 302 301 302 300 322 323 321 321 322 324 326 328 327 326 326 326 325 325 327 329 332 334 336 337 338 339 340 342 342 343 344 346 348 348 349 349 348 349 350 351 353 353 352 352 352 353 354 353 354 353 353 352 352 354 354 353 353 354 353 354 355 356
294 289 293 296 299 309 318 319 317 318 316 313 309 315 304 296 297 299 298 290 290 290 291 299 304 303 304 306 316 318 319 320 321 323 324 325 325 325 326 327 327 326 327 328 330 333 335 336 338 339 340 342 343 345 345 347 348 349 349 350 350 349 350 352 354 354 354 353 353 353 355 355 355 355 354 354 355 355 354 354 354 354 354 355 357 359
297 292 291 295 297 303 311 313 306 308 314 308 313 311 309 306 297 298 299 296 296 289 292 293 301 297 308 309 316 317 320 322 322 322 323 325 326 326 326 327 327 326 326 328 329 332 335 336 338 339 340 341 343 343 345 347 348 348 349 350 350 351 351 352 353 355 353 353 354 354 356 356 357 357 355 354 355 355 354 355 355 355 354 355 357 358
296 296 289 295 298 303 305 304 306 308 304 302 305 305 306 302 306 304 303 299 295 293 292 292 292 296 304 312 318 319 321 323 323 322 323 324 326 327 328 327 327 328 327 328 330 331 334 336 338 339 341 342 344 345 345 346 348 348 349 349 351 350 350 351 353 354 354 354 354 355 354 356 357 357 356 355 355 355 355 355 358 356 356 357 356 358
296 293 292 292 293 301 299 300 300 308 309 302 300 303 309 300 300 296 293 299 301 294 290 293 293 297 309 322 321 320 323 324 326 325 324 324 326 327 328 328 328 329 328 329 330 332 333 336 337 339 340 342 343 343 344 346 347 348 348 349 350 351 351 351 352 353 354 355 354 354 355 356 357 358 357 355 355 356 355 355 356 357 357 356 357 358
297 296 293 291 292 294 297 300 302 303 302 300 304 308 309 301 303 293 290 293 298 299 304 300 297 301 315 321 324 324 325 326 326 326 325 326 327 327 328 329 329 330 329 329 331 332 333 335 337 338 339 340 342 343 344 345 346 347 348 349 350 350 350 351 352 353 354 354 354 354 356 357 357 357 357 355 355 355 355 355 356 357 356 356 357 358
327 296 292 294 293 295 299 299 303 304 301 299 297 299 301 299 300 300 295 296 296 298 298 297 297 300 313 324 325 326 327 328 327 326 326 327 328 328 328 328 328 330 330 331 331 333 334 335 336 336 337 339 341 342 343 345 346 347 348 349 350 350 350 351 352 353 353 353 354 355 356 356 357 357 356 355 355 354 355 356 356 358 356 356 356 356
295 297 293 289 287 289 292 295 301 305 301 297 297 301 302 300 297 300 299 300 299 298 298 296 292 300 315 323 325 326 327 327 327 328 327 326 328 328 327 328 329 330 330 329 330 331 333 334 334 335 337 338 340 342 343 344 345 346 347 348 349 350 351 351 352 352 352 353 353 353 354 355 356 356 356 356 355 355 355 355 356 357 357 356 355 356
297 297 294 290 286 282 284 283 288 291 296 297 303 311 312 310 298 297 296 297 292 296 298 294 296 302 312 322 322 324 324 325 329 330 329 330 330 329 329 330 330 331 331 330 329 330 332 333 335 335 336 338 340 341 343 344 345 346 347 348 349 350 350 351 352 352 352 352 352 352 353 354 356 356 355 356 356 355 355 355 355 355 357 357 356 356
297 300 296 293 289 288 291 293 296 300 303 303 307 310 310 310 306 298 294 294 291 292 296 300 304 309 314 319 320 321 322 323 325 327 327 329 332 332 331 332 333 332 332 332 332 331 331 332 333 335 336 338 340 341 343 344 345 346 346 347 349 350 350 351 352 352 351 351 351 351 352 353 354 356 356 356 356 356 356 355 355 354 354 357 356 355
299 295 298 296 296 298 303 301 307 310 306 306 307 309 312 311 301 296 294 292 296 298 292 302 307 311 314 319 321 322 322 323 325 326 329 330 331 331 332 334 337 334 333 332 331 330 330 331 332 333 335 336 339 341 343 345 345 346 346 347 348 349 350 351 351 351 351 351 351 351 351 352 354 355 356 356 357 356 355 355 355 355 355 356 356 355
298 293 298 300 299 306 306 306 307 307 308 309 311 312 311 312 312 308 308 309 300 294 291 305 313 314 317 320 322 323 325 325 326 328 331 332 332 332 332 332 333 333 333 333 332 332 330 330 331 333 334 336 338 340 342 344 345 346 347 348 349 350 350 351 350 350 350 350 350 350 351 352 353 354 355 357 356 355 354 353 354 354 354 355 355 354
299 296 300 299 298 304 306 307 308 304 306 307 309 312 314 314 313 314 313 313 310 310 313 315 315 315 318 320 322 324 326 327 327 330 331 331 330 331 331 331 333 333 332 333 334 335 335 333 333 333 335 336 337 339 341 343 344 345 346 347 349 350 351 351 350 350 349 349 349 351 351 351 352 352 353 354 354 354 354 353 353 352 352 352 354 354
298 297 306 297 296 299 304 307 307 305 303 304 307 309 312 314 315 315 315 316 317 316 317 316 315 314 320 323 323 325 326 328 328 328 328 329 330 331 330 331 332 332 333 334 334 335 336 335 335 336 336 336 337 338 340 342 344 346 347 347 348 349 351 352 350 350 349 349 350 350 351 350 351 351 351 352 353 353 353 353 353 353 352 352 352 353
301 297 300 296 293 297 302 302 303 303 303 305 306 307 309 311 310 313 313 315 313 312 315 315 313 313 320 325 325 325 325 324 324 326 327 328 330 330 329 330 331 331 333 333 334 335 335 335 335 336 336 337 337 338 339 340 342 344 345 346 348 349 351 351 350 349 349 350 350 350 350 350 350 350 350 350 351 352 352 352 351 351 351 351 350 352
298 298 296 293 290 292 301 303 300 299 298 300 302 305 309 311 314 315 316 318 316 317 313 310 312 319 322 325 323 323 324 324 325 325 326 327 328 329 329 329 330 331 331 333 333 335 335 336 336 337 338 338 338 338 339 340 341 342 343 344 345 347 347 346 346 347 347 347 348 348 348 349 349 349 348 349 349 350 350 350 349 348 348 348 350 350
299 298 295 297 290 290 298 299 300 296 292 294 308 311 311 310 311 309 309 312 317 319 315 319 319 323 324 323 322 322 323 324 325 328 330 328 327 327 329 330 331 332 332 333 334 335 336 336 337 337 338 339 341 342 341 343 342 342 343 344 343 342 342 343 343 344 342 343 344 345 346 346 347 347 347 348 349 349 350 349 348 348 348 349 350 349
299 296 295 295 291 291 294 295 292 287 289 303 306 310 313 310 311 311 311 313 313 317 321 320 322 322 323 324 324 324 325 326 327 327 328 330 330 329 328 329 330 331 331 332 333 334 334 335 335 336 337 337 339 341 341 342 343 343 342 342 340 340 341 342 341 341 341 341 340 341 343 346 346 346 346 346 348 348 349 349 349 348 348 349 350 349
294 292 294 293 294 293 290 291 286 287 297 303 303 305 309 307 306 307 308 311 314 315 317 318 321 323 323 323 324 324 324 326 327 328 329 330 331 329 329 328 329 330 330 332 333 332 332 333 335 336 336 339 339 340 340 340 342 341 340 341 340 340 340 340 339 338 339 340 340 340 341 340 342 345 345 345 347 348 348 348 347 347 346 348 347 349
297 293 291 290 295 290 291 290 293 296 298 300 301 303 303 302 302 302 299 306 311 316 317 317 322 323 323 322 323 321 322 324 322 323 329 329 330 331 330 329 329 329 330 330 331 331 332 333 334 336 337 337 338 339 339 340 341 340 339 338 338 339 339 338 337 337 340 342 341 342 342 342 342 341 342 341 340 340 341 341 343 344 346 345 347 348
294 295 291 291 292 295 292 289 290 288 287 292 299 304 307 308 308 307 303 300 307 313 320 321 321 322 322 322 319 317 318 318 315 318 325 328 330 329 330 329 329 329 329 329 331 331 332 332 334 336 337 337 337 338 339 340 340 338 337 336 336 336 336 335 336 338 339 340 342 343 342 341 341 341 340 339 340 340 341 342 342 342 346 345 347 347
297 294 293 293 291 294 292 289 286 285 289 294 299 304 308 309 309 306 297 294 302 309 316 320 320 319 319 316 315 313 312 312 314 318 324 326 327 327 327 327 326 327 328 329 328 328 329 329 331 331 333 334 333 335 337 337 336 335 335 335 335 336 334 335 337 338 338 340 342 344 343 342 341 341 340 340 340 341 341 341 341 342 341 340 343 344
296 294 292 293 291 292 290 288 289 291 293 300 301 304 309 309 308 300 290 290 298 310 317 319 318 318 317 316 316 316 314 313 315 319 325 324 323 323 323 323 324 324 325 328 328 328 328 329 328 328 328 329 330 334 335 336 335 334 333 333 334 333 333 334 335 337 339 341 342 344 343 343 343 341 341 340 340 342 341 342 342 341 341 341 342 342
290 291 290 287 290 295 296 290 291 295 302 305 305 309 309 310 300 291 286 295 304 314 319 319 318 318 318 317 317 315 319 322 322 324 324 322 321 321 322 323 323 324 324 324 325 328 326 327 327 326 327 328 331 333 333 333 332 331 331 330 330 330 331 333 335 337 338 339 341 342 342 342 342 342 341 341 341 342 342 342 340 340 340 340 342 341
290 290 293 289 290 290 288 289 290 293 299 306 309 309 309 301 292 288 297 302 313 318 320 321 319 320 320 320 321 321 321 323 324 322 319 318 318 318 320 321 322 322 323 325 327 326 324 325 325 326 326 328 330 331 331 331 329 328 328 327 325 327 329 330 331 333 334 335 336 337 338 340 341 342 342 342 341 339 340 340 341 341 341 341 339 337
291 289 289 287 290 289 287 288 288 287 298 308 308 307 308 299 296 298 307 316 320 320 320 321 321 322 322 319 321 321 322 322 321 319 317 316 316 316 317 318 319 319 320 321 323 325 325 323 323 324 325 327 328 329 330 329 327 327 326 325 326 328 329 329 329 330 331 332 332 334 335 336 339 341 342 342 341 339 337 338 339 340 341 338 336 334
295 290 286 288 290 285 281 285 286 293 300 306 307 300 305 305 309 308 314 316 319 319 320 320 320 322 322 320 319 319 320 319 318 316 315 314 315 316 318 319 319 320 320 322 323 324 324 322 322 322 323 324 325 326 327 328 327 327 326 325 329 330 330 328 327 328 329 331 330 330 332 335 335 336 336 337 336 336 334 335 338 339 339 337 333 330
297 294 292 290 293 290 288 288 295 298 303 306 308 308 310 312 312 312 316 316 317 317 316 319 318 320 321 319 318 317 316 317 316 316 314 313 314 315 315 316 317 318 319 320 322 324 322 321 320 321 321 323 323 324 324 325 326 326 324 326 329 329 330 330 329 327 326 326 328 330 331 332 333 333 333 333 334 334 335 335 336 334 333 331 330 330
302 301 298 301 298 300 300 301 306 305 306 308 310 310 312 313 315 316 317 317 315 316 317 318 318 318 318 318 316 315 315 315 314 314 314 314 313 314 317 316 317 318 319 320 321 321 320 319 320 320 320 321 322 322 324 322 323 322 323 325 327 327 328 329 330 330 329 329 330 330 330 327 326 326 327 328 329 330 331 334 334 332 331 331 331 331
299 302 298 298 300 292 293 300 303 305 306 307 309 313 314 315 315 315 316 315 317 319 319 320 319 319 318 318 317 315 314 315 314 313 313 313 312 312 313 313 314 315 317 317 320 320 317 318 318 319 319 318 319 320 320 320 321 322 324 324 324 326 327 327 327 328 327 328 329 330 329 327 325 322 321 321 322 322 326 328 330 333 332 332 331 331
299 301 299 295 294 292 296 301 304 306 307 308 307 310 313 315 317 318 317 318 318 319 319 320 321 319 319 317 317 316 315 315 315 313 314 313 312 312 311 312 313 316 316 316 317 317 316 316 317 318 318 318 318 319 320 320 320 321 321 322 324 327 328 330 327 322 323 325 329 330 329 329 328 321 317 316 315 314 316 318 322 322 321 322 325 330
299 307 296 297 297 301 302 304 305 305 307 307 309 308 309 312 315 316 317 319 319 320 320 320 321 320 319 318 318 318 316 315 315 315 315 313 314 313 312 311 312 314 316 316 317 318 316 318 317 317 318 318 317 318 319 320 321 321 321 321 324 326 327 328 331 327 323 323 324 326 326 320 320 318 315 314 312 310 308 310 313 317 318 317 315 318
301 296 298 300 298 296 298 302 304 301 299 304 309 309 310 312 314 314 315 316 317 318 319 319 320 321 320 319 319 318 316 315 315 315 314 313 313 313 313 313 313 315 316 317 318 318 319 319 318 319 319 318 318 320 320 320 321 322 322 322 322 325 327 328 327 324 324 324 323 322 322 320 318 318 317 315 314 313 310 307 301 305 313 313 312 306
297 298 299 297 297 297 301 304 304 301 303 305 308 310 310 311 314 314 313 313 314 316 319 319 318 318 319 319 320 319 317 316 316 317 316 315 314 313 313 313 314 315 315 316 317 317 318 319 321 320 320 319 321 321 321 321 320 321 322 321 322 323 323 324 325 323 323 327 326 324 322 319 316 316 315 315 316 317 316 314 311 298 298 305 305 300
Wind_Speed
3 2 4 5 6 7 7 10 4 1 3 5 4 1 1 1 2 3 4 6 6 5 2 1 1 7 11 11 9 8 6 6 7 8 7 7 7 7 6 7 7 7 9 7 9 10 10 10 9 8 7 7 7 6 7 8 7 7 7 7 7 6 7 6 6 5 6 5 4 3 3 3 3 3 2 2 2 2 2 3 3 3 3 3 2 2
2 3 8 7 7 9 10 9 4 3 3 1 3 2 1 1 2 2 2 3 3 3 2 3 2 5 10 9 8 5 8 9 9 9 8 9 8 7 8 8 8 8 2 5 5 6 8 8 10 8 8 8 9 7 8 8 8 7 7 8 6 6 6 6 6 6 5 4 4 4 4 3 3 3 3 3 3 3 2 3 3 3 3 2 2 1
1 7 4 5 6 2 3 3 1 2 2 1 2 2 1 2 1 4 4 4 4 3 1 2 4 2 1 1 5 4 4 1 3 8 10 10 9 7 8 8 7 5 5 7 8 9 9 11 11 9 8 8 8 7 8 7 7 7 6 6 6 6 6 6 6 5 5 4 4 4 4 4 3 2 2 3 2 2 3 2 2 3 2 2 2 2
2 5 6 5 2 2 1 1 2 3 4 3 3 2 5 2 4 0 3 7 1 2 4 4 5 0 1 1 3 3 0 1 1 4 7 8 10 10 11 10 9 8 8 9 9 10 10 10 10 8 8 8 7 7 6 7 8 6 6 6 6 6 6 6 6 6 4 5 5 4 5 5 4 3 2 2 2 2 2 2 1 1 3 3 2 1
6 4 1 4 4 4 3 1 2 3 4 1 4 3 1 3 3 1 3 5 2 3 10 7 3 1 1 4 5 6 1 2 3 2 5 6 7 8 7 7 10 11 10 10 9 8 9 10 11 11 10 9 9 8 8 8 8 6 8 7 7 6 6 5 6 6 5 5 4 3 3 4 4 4 3 3 1 2 2 1 2 3 2 3 2 1
5 8 3 1 1 1 1 2 4 3 3 3 4 8 4 3 6 8 8 8 2 3 8 14 4 5 5 7 10 8 3 4 2 3 8 9 7 4 6 8 8 10 11 12 12 12 12 12 9 8 9 10 9 9 8 8 8 8 7 7 6 5 5 6 5 6 6 6 6 5 5 5 4 3 4 5 5 4 4 4 2 2 2 2 2 2
3 2 4 3 4 3 2 4 3 4 2 2 5 8 4 7 8 9 9 6 3 4 5 4 9 2 3 10 10 8 6 6 4 3 8 10 8 6 8 7 9 10 9 10 11 11 10 9 10 10 11 11 11 9 8 7 7 8 8 8 7 7 6 6 6 7 6 6 6 6 7 6 6 6 4 4 4 5 4 3 4 4 3 3 3 2
0 1 1 1 3 3 3 6 3 7 3 4 4 4 8 8 7 6 6 2 2 4 3 1 2 4 6 11 11 11 10 8 7 6 6 10 9 9 8 8 8 10 11 11 11 11 12 13 13 14 13 12 12 10 9 8 8 8 9 8 8 6 6 6 6 7 7 7 6 6 5 6 6 7 7 6 5 4 4 4 4 3 3 3 3 3
1 0 2 2 2 2 6 6 4 8 5 2 4 8 7 7 6 8 7 2 3 2 2 6 3 0 3 4 9 10 10 11 12 8 7 9 10 10 9 9 10 11 12 13 11 12 11 12 12 12 12 11 10 10 10 10 9 8 8 8 7 7 7 6 7 7 7 6 7 6 6 5 5 5 5 4 4 5 4 5 3 4 4 3 3 3
2 5 7 6 5 6 6 7 6 10 6 2 13 13 10 9 9 6 3 4 3 2 4 7 8 5 1 3 8 8 11 15 12 10 9 10 12 10 10 8 9 8 8 11 14 13 13 12 12 12 11 11 11 10 10 9 8 8 8 8 8 8 7 6 7 7 7 6 6 6 6 6 5 3 3 4 5 5 5 5 5 4 4 4 4 3
5 3 5 4 5 8 7 2 6 6 8 9 13 13 9 8 5 1 2 2 1 2 5 6 9 5 3 6 12 14 16 12 8 6 4 5 8 10 9 10 9 9 10 9 10 12 13 12 11 9 11 11 9 8 9 9 9 9 9 9 9 9 7 7 8 7 7 6 6 6 7 7 7 6 6 5 4 4 4 5 5 4 5 4 4 3
3 1 1 3 8 2 3 3 1 11 15 9 4 4 6 5 3 3 2 1 1 3 1 3 12 5 6 3 9 10 8 16 15 11 11 10 12 11 9 8 9 10 10 10 10 10 9 7 6 7 8 9 10 9 10 9 9 9 9 9 10 8 7 7 7 7 7 6 6 6 7 7 7 7 6 7 7 7 7 7 6 5 4 4 4 3
4 6 3 5 4 9 5 9 5 7 2 6 8 6 6 1 4 2 3 1 3 4 0 1 5 4 13 5 2 9 11 16 15 12 12 12 12 12 11 10 8 9 10 10 10 9 9 10 10 10 9 7 9 10 11 11 10 10 9 11 11 10 8 8 7 8 7 6 6 6 7 6 6 7 7 7 7 7 7 6 6 5 5 4 4 4
6 3 1 1 3 3 10 9 5 4 1 7 9 7 6 2 2 2 2 2 4 2 1 2 4 6 2 6 11 11 15 15 14 12 11 12 12 13 12 10 9 9 10 10 10 10 11 11 11 11 11 11 10 11 11 11 10 10 10 10 11 11 10 8 8 8 8 7 7 6 6 6 6 6 6 6 7 7 6 6 6 6 6 5 6 5
2 3 2 2 1 3 4 8 14 10 11 10 4 10 8 7 6 3 4 4 4 2 1 4 5 5 3 4 2 9 15 13 10 10 8 9 10 9 9 9 9 9 9 10 10 11 12 12 12 11 11 11 11 11 11 10 10 10 10 10 11 10 9 10 10 8 8 7 7 6 6 6 6 6 6 6 6 6 6 5 6 6 5 5 6 6
1 5 8 5 2 5 6 3 6 7 5 1 2 5 5 6 5 1 4 4 2 1 2 2 4 1 4 1 3 1 2 8 8 9 5 5 6 8 7 9 10 10 11 10 10 11 12 12 12 10 10 10 10 11 10 11 10 10 10 11 11 12 11 10 9 9 9 8 6 7 7 7 6 5 5 5 5 5 6 7 7 7 6 6 6 5
1 2 3 4 3 10 5 5 3 11 7 5 5 6 5 4 8 5 1 1 2 1 3 1 5 3 5 3 2 2 5 8 10 10 7 5 6 8 8 9 10 10 11 11 11 11 12 10 10 11 11 10 10 10 11 11 11 12 11 11 10 10 9 10 10 9 8 8 7 7 7 6 6 7 7 6 7 7 6 6 6 6 7 6 5 5
0 7 4 4 4 2 2 6 5 1 4 7 3 6 2 1 5 4 3 2 2 2 2 2 5 3 1 4 2 4 7 8 11 12 12 7 6 9 8 8 9 11 12 13 12 12 13 13 13 11 10 11 12 13 12 12 11 11 11 12 12 10 11 10 9 8 8 8 8 7 7 6 6 7 7 7 7 6 6 6 5 5 5 6 5 5
2 4 4 1 2 1 1 9 2 3 2 2 2 4 4 1 2 2 4 0 1 1 2 2 2 5 6 5 4 8 10 11 12 12 12 13 11 11 10 7 7 8 8 10 10 10 11 11 12 12 12 12 11 12 12 12 11 10 9 10 11 12 12 11 8 8 7 8 6 6 7 7 6 6 6 6 6 6 6 6 6 6 7 5 5 5
1 0 5 3 4 1 2 6 8 6 3 2 3 1 3 6 4 3 4 3 4 2 1 1 1 4 5 3 10 11 12 12 13 12 15 16 15 11 11 9 8 8 10 10 11 11 12 12 13 13 12 12 12 11 10 10 9 11 10 10 10 9 8 8 9 9 9 7 7 6 6 7 7 6 6 6 6 6 6 6 6 6 6 7 5 5
0 1 1 8 6 2 2 1 8 9 6 0 2 3 2 0 3 2 1 2 2 3 3 1 2 3 3 3 5 11 12 13 15 16 14 14 15 14 12 11 8 8 10 11 11 11 12 12 12 12 11 11 11 10 10 10 11 11 10 10 10 10 10 10 9 10 9 8 8 8 8 7 7 7 6 6 6 6 7 6 6 6 6 5 6 5
2 2 2 4 5 2 6 3 3 2 4 5 5 2 2 1 0 2 5 1 2 3 2 2 3 2 4 2 5 6 6 10 13 15 14 14 15 15 13 11 10 9 9 11 11 11 11 11 11 11 9 8 9 9 10 10 9 9 10 10 10 9 9 10 9 9 9 8 8 9 8 7 7 6 6 7 6 7 6 6 6 6 5 6 6 6
2 2 4 4 3 6 4 7 5 1 3 4 4 0 2 2 3 2 1 3 1 2 2 1 0 1 1 6 6 5 4 8 9 9 10 11 13 13 13 12 10 9 10 10 11 11 11 11 11 11 12 11 12 11 11 10 10 10 10 10 9 10 10 10 10 9 8 8 8 9 8 7 6 7 7 7 6 7 6 6 6 5 6 6 5 5
6 4 5 3 7 6 3 3 4 5 5 5 1 4 3 5 7 6 5 5 3 1 1 1 0 2 5 8 6 2 2 4 4 6 7 7 7 10 10 10 9 8 6 6 8 9 10 10 10 9 10 10 9 9 11 10 9 9 9 9 9 11 11 10 9 8 8 8 8 8 7 8 7 7 7 7 6 7 6 6 5 5 6 6 5 5
1 1 3 4 5 6 3 4 7 9 4 1 1 0 2 4 2 2 2 1 1 3 4 4 2 1 5 7 6 6 6 6 5 3 4 4 4 6 7 6 6 8 7 6 7 8 9 9 10 11 11 11 11 10 10 10 10 10 9 9 10 10 10 10 9 9 9 9 9 8 8 7 7 7 7 7 6 7 6 6 6 5 6 5 5 6
7 1 4 4 3 3 2 1 1 1 3 5 0 4 3 2 1 3 4 1 1 1 1 2 1 3 4 6 8 6 6 6 5 7 7 5 2 5 6 6 6 7 6 6 5 6 9 10 10 10 10 10 10 11 10 10 10 10 9 10 10 10 9 9 8 9 9 8 9 9 9 9 7 8 8 8 7 7 7 6 6 6 5 6 6 6
3 1 5 5 4 2 5 6 7 4 1 2 4 6 7 3 3 2 4 3 5 3 2 1 2 1 6 10 9 7 4 4 5 6 8 6 5 5 5 6 6 5 4 4 5 6 5 6 9 10 10 11 11 11 10 11 10 10 10 10 10 9 8 8 8 9 8 8 9 9 9 9 8 7 7 7 7 6 6 6 6 6 6 6 6 6
3 4 1 8 3 1 2 3 9 7 3 1 3 6 8 11 1 4 3 6 1 7 1 0 1 3 3 6 7 7 7 6 4 3 5 6 6 7 7 7 7 7 5 4 3 4 7 7 7 8 10 10 10 9 9 9 10 11 11 11 10 9 8 7 8 8 8 8 8 9 9 9 9 8 8 7 6 6 6 6 6 6 6 5 6 7
3 2 2 2 3 1 11 14 16 11 5 2 6 10 12 9 11 8 3 3 0 2 7 4 4 5 3 5 6 6 6 5 6 5 3 5 6 6 7 7 6 6 4 4 3 2 5 8 7 8 9 10 9 10 10 8 8 6 6 6 7 8 9 9 9 9 9 9 9 9 9 8 7 7 7 7 7 7 7 7 7 6 6 6 6 6
4 0 2 3 3 5 9 12 7 13 13 8 10 11 11 11 10 12 12 8 8 8 8 10 10 10 5 5 5 5 5 5 5 4 5 6 6 5 5 5 4 4 4 3 2 3 3 3 4 6 6 7 9 10 9 9 8 9 9 7 5 6 6 7 8 9 9 10 10 9 8 8 7 7 7 7 7 7 7 7 6 6 7 7 7 7
4 2 3 3 3 3 1 4 5 7 11 10 9 11 11 10 10 10 9 10 12 11 11 9 10 8 5 5 5 5 5 6 8 9 8 5 4 6 6 5 5 4 3 2 2 2 2 5 6 6 6 7 7 8 8 8 8 7 7 7 7 7 6 7 8 8 9 10 9 8 7 6 7 6 7 8 7 7 7 7 6 6 6 6 6 6
2 3 3 2 5 2 4 2 8 6 7 11 13 13 12 8 8 6 6 5 3 6 8 8 7 5 3 5 6 7 8 9 9 9 7 6 6 5 4 3 2 2 3 2 2 3 3 4 6 7 7 7 7 8 8 7 7 8 8 7 8 7 7 7 6 8 8 6 3 4 5 6 6 6 7 6 7 6 6 5 6 6 6 6 6 6
1 4 2 3 2 4 6 4 7 10 6 5 7 7 8 8 7 8 11 12 8 4 4 4 4 2 5 5 7 8 9 9 9 8 6 7 7 6 5 4 3 2 1 2 3 2 2 2 4 5 6 6 7 7 7 8 7 7 6 5 4 6 5 5 3 2 1 3 6 6 6 5 5 6 6 6 5 5 4 5 6 6 6 8 7 5
1 3 4 2 2 2 8 9 7 1 3 3 4 3 4 10 10 9 5 6 8 6 3 4 6 5 6 6 8 8 9 8 8 8 7 6 6 6 7 6 5 5 3 4 3 2 2 2 1 3 2 3 1 3 4 5 7 7 8 8 8 7 6 7 7 7 5 2 3 1 3 5 5 6 6 6 6 6 6 6 7 7 6 6 5 6
4 1 1 1 3 1 0 3 3 3 5 4 1 2 1 1 3 8 6 7 7 8 6 7 7 7 7 7 7 7 8 10 11 10 10 10 8 7 7 7 6 5 5 4 3 3 4 3 3 3 3 1 2 3 3 4 5 6 7 8 9 8 7 5 5 6 8 7 5 2 6 5 4 7 7 7 7 6 7 7 7 6 6 7 8 8
4 3 2 2 2 2 4 4 2 1 3 4 3 2 2 1 1 1 3 5 5 4 9 4 6 7 8 7 6 5 7 8 8 10 10 9 9 7 7 7 8 7 7 6 3 4 4 3 1 2 3 2 3 4 3 4 4 6 6 5 7 7 7 7 5 6 7 1 5 7 6 1 10 9 4 5 3 1 2 3 4 5 3 2 1 1
7 3 3 1 0 2 3 4 2 3 3 2 1 2 2 1 2 2 2 2 2 2 1 3 5 6 6 5 3 4 3 5 9 9 10 10 9 9 9 9 8 9 8 7 7 6 5 5 5 5 3 4 4 4 4 5 6 7 7 7 7 7 6 7 6 7 4 2 3 3 5 6 3 5 4 3 5 5 5 3 5 7 2 2 2 3
3 4 4 4 1 4 6 4 1 2 1 4 2 1 2 1 1 2 1 1 1 2 3 1 5 6 4 1 4 4 1 4 8 6 8 9 9 9 9 9 9 8 7 6 6 6 7 7 6 6 2 5 6 4 3 3 5 8 8 6 5 6 7 6 4 5 6 5 4 3 3 4 7 6 4 3 4 5 5 5 5 3 4 6 2 5
5 5 5 5 3 3 3 5 3 4 3 2 2 2 1 0 1 3 2 2 1 1 1 3 2 2 2 1 4 3 3 5 4 4 5 7 7 8 8 8 8 7 6 7 8 8 8 8 8 9 8 7 6 4 4 5 5 5 5 5 5 5 6 6 6 5 4 3 2 4 3 5 6 6 5 5 5 5 4 3 3 2 3 1 6 3
8 5 4 5 2 1 4 4 2 3 1 1 3 4 2 1 3 3 1 2 2 2 2 1 2 2 1 2 2 6 4 5 4 2 4 7 7 7 8 8 8 9 9 8 9 8 9 9 11 12 10 10 8 6 5 5 5 5 5 3 3 5 5 4 4 5 5 3 3 4 3 3 4 6 5 5 5 3 5 4 3 3 2 2 2 3
3 2 6 4 3 1 4 0 1 2 2 2 3 5 4 1 2 2 1 3 2 1 2 3 3 3 4 2 2 4 4 5 6 5 6 6 7 8 7 7 7 8 9 9 9 8 9 9 10 10 10 9 9 8 7 7 8 7 5 6 6 6 4 2 3 4 6 5 3 2 2 3 4 5 5 7 5 6 7 6 6 5 5 4 4 2
1 2 0 2 3 2 1 2 1 2 3 1 3 4 3 1 1 1 1 1 4 5 3 3 4 4 5 5 5 5 5 6 7 7 7 7 6 5 6 6 7 8 7 7 10 8 7 9 10 10 11 9 9 7 6 7 8 6 7 8 8 6 4 4 4 4 6 7 7 6 7 6 5 3 3 4 3 4 5 4 3 3 3 4 4 4
2 2 0 1 1 2 3 3 1 1 1 1 3 2 1 1 2 2 3 2 3 5 6 5 5 7 7 8 8 8 7 7 7 6 6 5 6 5 5 7 7 8 8 9 9 9 8 8 10 11 10 9 8 7 6 9 10 8 7 9 5 3 3 4 6 7 8 9 9 9 8 7 6 4 3 3 1 1 2 2 3 3 4 6 5 4
1 3 1 2 4 2 2 2 2 2 3 1 0 2 2 2 1 3 3 4 3 3 4 5 6 6 7 9 9 8 7 8 6 6 6 5 5 5 5 6 6 6 7 7 6 7 8 9 8 8 8 7 8 8 8 7 8 8 9 8 4 5 6 7 8 8 9 8 7 7 6 5 4 4 4 5 4 4 3 1 1 2 3 6 6 5
3 1 5 2 2 1 2 1 2 4 4 3 1 0 0 1 1 2 4 4 4 3 1 5 7 6 6 8 7 7 6 5 5 4 5 3 5 5 6 5 5 6 6 7 7 6 7 8 9 9 9 8 9 8 8 8 8 9 10 6 5 7 7 7 8 8 8 8 7 6 5 6 6 7 8 8 8 8 6 4 3 4 5 7 6 6
2 1 2 6 0 1 2 3 1 2 2 4 2 1 1 2 4 4 4 6 2 2 2 6 6 6 5 4 8 4 5 5 7 5 5 4 4 4 4 5 5 5 5 6 7 6 6 8 9 9 9 9 8 8 7 7 8 9 4 4 6 6 6 7 7 7 6 6 6 7 7 8 8 8 9 8 8 7 6 6 6 6 5 5 5 5
2 1 1 4 0 3 0 3 4 2 3 3 3 3 4 4 4 2 5 5 5 5 6 4 6 5 5 5 7 7 5 5 7 5 4 4 3 3 4 5 4 4 5 6 4 4 6 7 8 8 8 9 8 8 8 8 7 6 5 6 6 6 6 7 7 6 6 6 6 6 6 7 5 5 6 7 6 6 6 6 5 5 5 4 5 5
1 2 7 1 2 2 2 1 2 2 2 1 1 2 4 5 6 6 4 4 5 5 5 5 6 6 4 7 5 7 5 3 7 5 4 3 3 2 3 4 3 4 4 4 4 5 6 7 6 6 7 6 5 5 6 7 6 5 5 6 5 5 6 6 6 6 6 6 6 5 5 6 8 6 5 6 6 6 6 5 5 5 4 2 1 3
2 2 2 3 3 0 1 1 1 2 4 5 4 3 1 2 5 5 5 5 5 7 6 6 4 4 5 6 4 7 6 3 4 5 5 3 3 3 2 3 3 3 3 5 4 5 5 5 6 5 5 4 4 4 6 6 6 6 6 5 5 5 6 5 5 6 6 5 5 5 5 5 4 4 5 6 6 6 6 4 3 3 4 4 2 2
3 3 1 4 6 2 6 6 4 5 1 1 0 1 3 1 6 6 5 7 5 6 6 8 7 6 7 5 5 7 7 4 2 4 5 3 2 2 2 2 4 4 4 4 5 4 4 4 5 4 4 3 3 4 5 5 5 5 6 5 5 5 5 4 5 5 6 5 5 4 4 4 4 4 4 5 5 5 6 9 9 6 3 3 8 8
3 6 6 6 8 5 7 6 4 3 4 3 4 2 2 2 5 8 6 6 4 4 6 9 8 7 6 5 3 6 6 6 4 4 6 4 3 2 1 1 4 5 4 4 6 5 5 3 3 4 4 2 3 4 4 5 5 5 6 5 5 5 5 5 5 5 4 5 5 4 4 4 5 4 5 5 5 5 6 5 6 10 10 9 9 8
Wind_Direction
128 129 195 208 217 210 214 216 212 100 111 99 95 111 262 149 87 99 129 170 171 110 127 10 170 163 164 167 161 152 144 161 169 177 176 179 178 180 184 188 191 191 203 182 169 163 157 152 158 161 163 165 162 152 152 153 152 154 161 160 167 158 147 149 149 148 146 138 125 94 142 153 160 160 140 156 153 171 183 174 168 174 177 182 180 167
87 158 239 217 215 200 216 221 247 307 53 114 129 143 193 152 196 36 135 144 244 146 118 25 82 182 171 161 160 142 142 177 182 185 187 187 184 183 182 190 191 201 161 129 138 148 141 147 154 161 165 166 169 169 160 165 161 157 160 169 162 152 152 158 161 156 151 146 158 149 166 154 145 157 167 186 201 186 177 169 165 169 166 170 185 179
94 213 251 220 229 237 278 303 292 218 272 101 156 138 109 253 91 113 95 87 25 31 155 129 123 135 217 169 162 140 131 153 206 194 192 187 188 187 187 189 187 168 169 165 164 156 156 151 156 164 169 173 174 168 167 166 152 156 162 171 159 158 156 161 159 149 155 143 146 140 159 153 137 166 174 164 145 170 163 159 165 157 149 145 159 160
265 297 253 228 127 179 294 299 213 207 223 180 83 97 222 194 151 268 80 119 322 125 148 160 131 336 338 311 251 274 113 248 232 230 214 195 191 191 191 185 174 175 164 171 166 165 159 157 157 163 171 171 166 170 171 168 163 161 164 170 163 162 158 159 163 160 150 152 159 154 154 159 134 175 146 107 86 116 122 188 149 218 159 157 162 144
204 217 106 119 157 155 217 300 198 200 238 258 176 184 164 173 201 112 167 116 132 90 127 115 82 319 263 188 235 253 252 289 293 236 222 220 210 203 190 177 173 172 172 171 168 162 157 158 167 172 173 167 170 177 181 176 170 170 171 173 169 167 166 161 167 157 152 140 130 116 86 109 83 59 78 105 84 145 191 166 197 220 178 167 185 173
292 261 179 115 89 101 156 284 232 183 273 323 219 205 208 156 134 110 121 120 143 149 172 146 148 209 204 217 213 210 248 269 285 221 211 209 209 178 187 187 183 175 173 168 172 172 171 170 162 159 168 173 174 180 185 181 171 161 166 166 166 164 163 164 170 154 153 157 152 143 136 144 144 122 135 174 193 190 189 208 183 192 195 184 197 204
215 290 146 183 206 220 202 224 226 151 182 295 276 188 158 135 130 136 150 136 162 218 206 210 186 177 170 213 215 223 233 260 284 257 217 203 198 191 196 182 178 174 176 177 171 169 166 166 162 167 174 177 179 184 174 177 171 160 162 166 168 171 173 170 166 159 160 156 164 165 162 162 169 166 207 198 187 182 201 177 184 206 205 194 197 229
103 306 195 200 178 205 218 263 245 152 132 246 281 149 114 117 127 138 136 36 43 56 153 223 24 148 194 226 213 207 218 234 258 261 231 203 195 196 195 184 179 177 173 172 174 175 174 172 171 175 179 178 183 174 170 176 172 164 165 165 170 173 173 176 161 165 167 163 170 163 163 165 168 177 188 183 189 182 162 177 195 192 215 205 207 218
151 198 176 229 227 178 221 215 208 159 140 233 47 89 94 120 126 136 138 132 25 9 201 212 147 263 239 229 192 194 217 233 242 241 228 206 198 197 194 187 183 180 177 171 173 177 177 179 183 175 176 177 167 170 176 179 176 169 166 164 164 172 173 174 167 164 173 165 165 164 162 169 185 182 178 170 165 163 169 177 186 194 211 219 219 214
277 207 206 178 160 220 226 233 179 155 107 109 98 75 70 63 50 43 50 72 148 130 227 195 170 213 301 209 184 202 212 221 223 223 221 204 196 195 193 188 183 179 179 179 176 177 180 184 185 183 167 164 173 174 175 174 167 168 164 164 166 176 175 170 173 167 168 166 157 157 168 168 177 157 122 149 164 169 165 183 193 199 205 214 226 224
244 315 157 121 189 211 210 237 167 157 115 138 90 83 61 53 80 343 61 94 357 238 244 163 170 195 271 208 195 187 211 204 214 220 210 202 199 195 195 186 179 177 179 181 182 182 182 183 179 162 169 171 161 165 169 169 172 169 169 169 173 181 173 170 172 169 172 167 165 167 171 172 169 167 151 147 162 148 158 187 198 198 209 204 218 218
328 314 137 238 204 96 107 36 41 136 142 133 109 118 86 19 2 40 342 45 182 260 297 148 174 172 218 259 214 211 147 196 204 203 192 193 195 194 192 189 184 178 179 181 178 183 175 159 162 168 167 164 163 159 168 172 170 172 173 171 175 177 177 173 170 170 173 172 174 176 173 176 176 166 166 172 176 180 184 188 194 203 198 214 215 217
301 210 236 312 184 128 114 92 47 122 112 87 104 106 105 270 34 326 11 312 225 222 122 188 152 157 231 231 214 198 203 202 198 196 190 189 192 192 191 186 183 180 178 178 179 170 168 171 169 173 171 158 162 171 172 172 172 174 173 175 174 183 180 177 171 174 174 174 182 182 184 187 175 176 176 180 182 184 187 187 190 183 205 209 214 219
279 301 107 308 99 207 134 116 127 146 245 135 142 138 116 83 69 233 272 288 303 297 118 135 171 248 289 271 202 191 209 201 194 194 187 185 188 191 188 183 177 179 179 180 175 174 175 176 180 175 172 174 175 175 174 172 172 173 176 177 180 184 181 176 175 176 173 184 184 185 188 188 177 183 186 186 186 188 191 184 190 190 197 203 212 207
31 343 318 149 248 207 162 149 170 169 177 189 161 165 173 145 160 206 189 204 221 239 48 132 129 229 150 247 293 215 194 196 190 192 188 182 186 186 182 175 173 178 181 177 176 178 180 181 178 176 177 179 179 176 174 173 174 173 175 177 182 180 184 179 180 175 180 185 186 185 189 186 183 185 188 193 192 186 188 188 187 199 196 197 210 211
210 218 256 217 199 140 209 193 153 108 87 27 139 60 100 208 155 119 201 156 168 125 155 195 210 207 195 248 282 273 184 174 169 192 195 177 144 150 158 176 182 183 180 178 178 183 186 182 179 177 178 181 180 178 177 175 171 176 180 180 183 181 180 184 181 182 181 184 183 185 187 190 186 187 185 188 192 194 194 188 192 199 202 208 208 210
6 315 258 312 284 187 180 112 169 143 165 192 122 203 211 171 118 104 57 255 115 47 253 170 300 297 288 298 188 129 149 180 174 187 202 193 171 156 169 182 186 184 180 179 180 183 185 182 183 182 180 179 178 178 181 180 180 180 176 179 182 182 179 183 185 183 181 177 177 188 189 184 186 186 180 186 191 192 196 195 198 196 205 206 205 202
151 263 305 39 5 19 137 110 145 17 164 107 203 221 184 90 117 124 163 335 64 163 264 143 236 295 29 283 56 135 173 179 188 190 192 184 190 183 181 178 186 187 184 183 183 182 181 182 183 184 185 182 181 183 183 184 183 181 179 179 180 179 182 187 182 180 180 179 183 182 183 185 190 191 193 187 189 185 182 200 205 206 200 207 206 199
111 342 295 355 230 251 26 88 90 298 94 124 218 185 98 334 310 324 94 335 130 274 263 275 259 266 189 248 158 199 184 190 191 188 185 192 190 193 188 174 182 187 177 177 181 180 182 186 186 184 186 186 186 185 186 183 179 179 183 184 182 185 187 183 181 180 181 181 182 181 181 179 185 194 197 196 192 179 185 193 194 198 206 202 199 200
69 191 301 322 35 266 20 120 183 232 314 89 103 106 114 129 224 123 215 171 118 232 42 292 98 256 210 238 191 197 195 188 185 184 195 192 188 187 187 177 169 177 180 180 181 183 185 188 189 186 184 183 185 185 186 180 177 182 185 184 190 189 184 181 183 181 181 184 185 184 179 185 184 187 193 194 182 183 194 196 191 197 192 198 189 198
91 103 289 295 328 351 164 212 191 181 168 37 94 236 202 170 216 118 294 137 182 174 194 189 320 282 306 248 211 212 194 189 182 190 193 193 189 187 183 175 164 174 179 182 181 182 184 187 190 191 189 188 186 185 179 178 182 185 182 187 187 182 181 185 188 184 187 179 189 186 186 184 184 187 186 186 188 193 200 198 194 195 199 175 198 190
66 34 15 325 11 245 251 264 17 275 173 131 125 191 230 330 54 214 254 2 85 101 205 134 241 265 282 313 268 250 220 192 194 189 190 193 191 186 183 179 165 169 184 181 182 180 182 184 189 191 190 186 181 183 184 186 182 180 185 188 185 185 187 188 189 188 186 184 185 192 191 189 186 186 181 187 188 197 197 199 201 195 179 194 200 191
140 147 97 355 244 244 246 304 296 237 118 133 137 78 179 135 145 142 111 282 22 255 116 148 293 320 264 326 306 253 192 202 198 190 192 192 192 190 186 179 169 166 174 180 178 180 181 183 186 188 187 187 187 187 187 183 185 187 188 185 186 185 191 189 191 190 184 184 186 193 192 184 183 180 184 189 190 199 197 198 201 188 193 202 201 197
79 46 22 306 314 301 325 312 27 52 75 68 22 106 180 209 198 202 181 188 149 178 70 346 249 262 327 354 335 343 112 133 145 185 190 184 186 186 184 183 166 159 168 177 176 177 179 181 182 182 188 190 189 188 189 189 188 189 188 187 185 192 191 188 187 184 183 185 193 190 183 186 183 182 185 191 192 198 200 196 196 191 201 207 204 204
70 318 109 31 357 336 347 346 31 344 16 110 179 204 240 268 295 201 100 36 178 233 175 125 234 300 328 350 356 27 52 74 92 96 137 141 144 158 171 168 163 156 151 163 172 174 175 175 180 188 190 191 191 191 190 188 189 188 190 187 191 198 192 188 183 183 186 188 190 191 192 190 182 184 189 195 190 199 198 197 195 192 202 201 208 210
88 140 81 76 338 348 339 344 16 267 268 290 340 348 347 321 187 102 256 249 188 283 89 116 219 259 285 355 12 27 64 71 76 96 92 87 80 146 137 135 144 148 154 160 165 164 177 184 185 187 190 192 193 191 190 191 191 191 189 193 194 195 189 189 182 187 185 187 189 193 197 196 190 192 193 197 198 198 197 194 195 195 201 199 208 208
112 63 91 128 145 185 240 260 268 260 349 15 306 8 345 329 234 173 93 91 194 209 72 253 156 94 358 5 0 5 18 93 108 105 122 133 107 89 96 114 122 121 125 146 172 183 171 178 188 190 191 193 193 193 191 191 192 191 191 195 196 195 191 186 180 184 187 189 193 194 200 198 198 195 197 198 202 202 199 200 198 197 200 197 207 206
77 66 98 124 139 211 349 325 346 358 87 334 29 3 16 19 10 138 165 219 210 108 275 275 202 101 27 25 17 17 19 19 36 89 109 111 116 123 124 110 106 104 98 96 99 152 184 190 188 186 191 192 196 195 196 195 194 192 190 194 194 190 186 182 180 183 188 189 195 199 201 203 201 198 198 198 200 203 204 204 204 204 204 197 203 209
129 111 184 114 106 203 55 24 2 348 9 21 56 45 41 27 43 59 7 246 274 168 199 173 139 104 64 35 20 30 41 49 57 53 63 98 98 103 111 120 115 104 99 97 101 129 172 182 186 189 189 193 189 190 192 191 195 199 207 205 197 188 191 181 179 183 186 189 198 204 201 199 201 199 195 195 194 201 207 207 206 204 203 204 209 209
81 234 165 114 96 44 64 72 342 359 331 358 36 48 47 48 51 63 63 66 103 93 105 108 92 73 48 31 21 23 32 50 52 56 81 89 97 111 118 126 119 120 130 134 135 145 151 163 170 179 183 189 189 188 186 187 188 190 192 195 189 196 192 174 187 187 188 193 200 201 196 194 195 195 194 195 198 203 205 209 208 205 205 210 211 215
102 283 96 88 70 15 345 67 325 349 325 330 18 39 45 50 45 37 57 65 85 91 103 103 86 71 42 42 47 34 45 59 56 55 55 49 90 122 136 153 156 146 131 70 34 22 103 125 128 128 138 157 173 181 184 184 185 181 179 172 172 184 185 185 191 195 194 201 201 196 190 189 196 192 201 205 205 204 204 209 211 214 218 219 219 219
86 217 58 85 88 340 317 43 283 308 295 317 2 21 19 24 56 25 50 24 45 96 113 95 71 63 38 60 58 56 53 50 50 50 51 55 47 50 78 93 132 141 152 129 75 65 86 126 134 139 144 148 150 158 164 169 170 168 178 175 180 175 162 175 193 199 200 195 167 188 195 195 189 199 212 212 220 217 214 208 210 219 223 226 225 226
123 134 157 98 89 174 216 160 264 284 248 247 333 351 14 25 49 72 50 44 27 334 72 68 85 47 74 63 69 59 61 60 56 45 38 40 47 57 64 61 49 51 119 162 172 151 170 168 148 146 141 141 150 154 163 153 151 165 156 129 96 102 117 109 88 38 56 148 168 174 176 178 193 205 209 217 222 224 218 213 216 222 223 228 228 218
94 164 186 112 126 185 172 183 203 137 32 256 246 222 13 46 30 40 42 20 33 33 57 65 69 69 62 70 66 58 53 50 51 51 51 50 44 41 48 46 40 38 27 7 343 298 259 311 339 292 344 16 56 113 141 151 146 141 130 124 121 118 134 143 131 120 115 63 13 7 143 155 179 196 206 203 204 205 213 213 221 222 221 228 231 226
146 66 145 115 117 215 295 20 30 9 236 233 326 327 297 39 50 69 51 38 18 2 67 84 84 75 72 70 66 59 61 58 50 49 47 45 48 50 47 44 37 33 29 23 17 7 358 342 306 301 278 199 73 30 46 78 104 117 121 130 128 132 132 133 130 138 145 134 111 50 342 322 203 195 196 193 193 196 208 217 223 221 216 215 219 220
148 115 180 39 88 91 56 48 321 241 252 290 292 305 326 43 63 87 53 40 39 13 331 61 84 82 85 82 64 56 68 70 62 48 44 46 47 46 51 45 41 35 29 18 30 34 21 14 64 118 105 67 129 153 168 145 131 120 118 115 124 134 133 120 88 31 355 27 185 191 144 321 314 303 243 181 149 92 328 291 251 231 236 223 206 185
138 97 97 85 343 151 126 119 238 309 316 319 6 32 8 31 344 60 118 310 351 37 306 293 103 107 103 81 36 11 5 66 62 44 31 34 39 45 45 46 39 42 41 37 35 33 16 22 20 18 70 99 111 134 141 148 131 126 127 123 130 129 121 118 121 134 180 209 230 197 164 155 136 315 328 79 112 122 119 89 354 327 300 162 173 172
116 166 221 114 275 123 126 78 17 13 266 272 240 271 302 264 151 169 101 316 297 273 261 234 109 103 109 3 348 323 20 62 41 35 26 28 30 43 46 45 39 36 36 34 37 34 29 23 19 17 13 110 104 98 110 118 129 133 131 134 140 129 123 124 154 201 195 190 189 201 152 138 142 182 227 272 191 181 160 155 136 121 355 316 204 159
39 76 105 120 156 72 86 126 183 163 238 212 249 266 300 264 168 110 71 346 262 214 277 237 161 129 176 272 328 352 58 62 59 37 20 33 34 30 41 40 42 42 33 35 30 33 31 36 42 35 25 28 45 24 54 69 68 71 90 112 116 113 123 127 157 184 210 214 152 234 168 152 149 139 141 221 233 197 181 144 116 123 103 83 305 291
38 9 33 48 48 58 127 106 181 201 146 220 248 285 313 26 132 78 55 275 260 279 331 10 167 122 359 94 95 52 82 114 104 73 47 55 45 33 38 37 33 30 32 31 36 38 45 40 45 39 30 26 27 34 63 81 78 75 74 48 75 87 103 127 136 163 196 175 204 219 172 140 130 124 134 190 205 127 67 64 71 92 133 161 199 277
353 357 45 147 143 74 81 257 339 315 265 270 269 294 327 160 109 75 189 232 234 127 116 138 151 168 149 93 29 96 50 77 113 101 67 61 56 48 38 44 41 31 32 35 34 32 41 42 48 44 29 20 19 22 42 66 77 74 74 76 64 51 22 50 120 143 138 135 154 131 108 91 94 130 171 216 190 131 136 166 163 161 172 150 145 160
6 83 15 65 50 107 164 117 203 251 245 230 273 281 269 81 77 220 235 214 139 109 121 137 138 134 122 106 90 84 100 95 94 79 72 63 72 49 42 37 37 35 34 36 44 40 37 42 44 43 37 24 31 44 61 72 80 82 77 67 50 29 6 11 28 54 64 65 53 46 41 49 74 102 165 232 212 167 153 154 157 143 136 116 105 106
202 105 196 130 172 62 38 75 4 125 202 101 317 27 16 94 230 197 163 71 98 119 120 107 108 111 106 95 91 101 101 89 82 77 70 64 62 52 41 44 46 45 35 31 34 37 50 52 49 49 45 40 37 30 39 67 67 60 60 66 59 56 68 60 53 54 57 57 53 47 46 38 50 74 123 148 165 67 99 128 157 153 126 113 112 106
190 84 266 266 189 149 107 133 189 209 245 284 162 171 240 189 221 161 126 98 50 89 87 84 74 90 101 107 114 107 107 105 86 84 71 51 53 48 50 47 51 53 49 40 40 32 43 59 52 47 37 34 37 33 30 51 70 69 62 48 28 39 40 44 51 57 59 59 61 64 62 67 68 65 62 58 70 80 73 70 147 143 118 112 108 109
207 186 179 154 214 123 194 214 246 231 235 275 188 221 216 304 108 157 102 110 121 60 37 91 101 95 105 115 107 113 96 85 93 80 92 72 63 51 55 47 51 58 60 61 50 45 48 54 59 58 49 37 38 38 37 33 53 51 50 22 30 34 43 47 51 55 60 63 65 64 62 57 43 35 38 37 34 35 37 38 46 59 77 103 110 118
339 141 169 87 155 245 218 194 264 343 348 342 357 340 77 37 42 82 105 105 53 139 135 124 124 120 114 115 110 74 104 127 104 87 78 72 69 51 60 59 46 51 58 57 50 48 57 59 56 55 54 39 33 44 44 43 49 57 31 27 44 48 55 57 56 53 47 41 41 50 58 59 47 41 34 37 37 43 33 47 73 86 87 99 112 125
258 127 60 102 190 65 95 326 22 321 317 349 4 47 61 60 41 65 84 85 121 112 101 97 119 121 122 115 112 121 117 119 108 102 100 88 72 67 70 69 52 48 67 64 38 56 57 60 59 56 52 43 19 32 34 43 42 45 37 39 30 48 64 69 66 63 54 48 51 53 60 63 53 41 31 26 33 38 40 45 59 84 96 99 115 126
279 150 75 93 88 107 202 238 289 286 273 300 327 65 58 47 49 50 77 103 107 98 104 120 111 99 104 100 116 113 111 113 114 113 101 110 127 122 96 89 82 65 44 61 58 73 72 68 70 65 61 53 22 34 39 42 39 33 38 34 35 44 53 60 68 67 56 51 58 64 68 78 77 70 54 43 41 35 28 32 38 65 58 36 40 121
164 89 149 169 93 320 326 293 279 358 28 15 20 48 97 101 94 60 62 80 88 94 89 70 65 115 110 122 111 105 95 64 106 122 117 126 116 145 164 138 110 101 85 74 54 64 81 85 74 68 70 48 18 48 47 36 23 20 31 35 44 58 64 59 62 74 72 74 73 73 83 90 100 101 98 90 67 54 41 18 7 52 73 44 27 329
77 76 153 80 88 165 182 191 168 110 245 282 17 144 119 122 104 93 74 64 69 88 89 87 71 69 84 88 107 101 106 99 69 101 95 101 125 178 194 131 104 80 65 70 75 70 72 74 91 83 69 43 40 65 61 44 30 23 19 25 37 54 64 61 63 59 57 66 76 75 80 81 77 88 94 98 99 102 78 58 57 33 50 39 13 23
140 188 151 151 158 213 228 202 163 133 125 203 184 187 178 158 105 96 94 98 78 85 109 107 99 74 69 55 56 108 112 106 102 92 79 72 65 107 133 101 107 102 84 83 84 60 68 60 80 88 76 39 37 55 52 49 30 31 25 28 32 54 56 49 47 49 59 65 71 87 90 93 93 87 89 90 103 104 105 99 67 55 54 64 63 54